"Pseudo-MPEC" for C45ZGH1

Created 2026 Mar 9 23:35:12 UT using Find_Orb

Click here for an explanation of pseudo-MPECs

 
 Astrometry: 
     C45ZGH1*1C2026 03 08.38486711 41 11.681+32 57 29.38   ~389o 17.49GVNEOCP703
     C45ZGH1 1C2026 03 08.38710011 41 35.279+32 53 29.69   ~389o 17.27GVNEOCP703
     C45ZGH1 1C2026 03 08.38932911 41 59.262+32 49 24.64   ~389o       VNEOCP703
     C45ZGH1 1C2026 03 08.39155911 42 23.296+32 45 17.14   ~389o       VNEOCP703
     C45ZGH1 1C2026 03 08.41232211 46 12.518+32 05 03.12   ~38AK 17.42GVNEOCPI52
     C45ZGH1 1C2026 03 08.41294211 46 19.492+32 03 47.95   ~38AK 17.40GVNEOCPI52
     C45ZGH1 1C2026 03 08.41355911 46 26.418+32 02 32.93   ~38AK 17.31GVNEOCPI52
     C45ZGH1 1C2026 03 08.41416811 46 33.157+32 01 19.42   ~38AK       VNEOCPI52
     C45ZGH1 1C2026 03 08.45013711 53 37.162+30 42 22.54   ~38BK 17.55GVNEOCPI52
     C45ZGH1 1C2026 03 08.45074711 53 44.768+30 40 55.60   ~38BK 17.64GVNEOCPI52
     C45ZGH1 1C2026 03 08.45135911 53 52.307+30 39 29.30   ~38BK 17.46GVNEOCPI52
     C45ZGH1 1C2026 03 08.45196911 53 59.834+30 38 02.51   ~38BK       VNEOCPI52

Station data:
(703) Catalina Sky Survey  (N32.417029 W110.732640)  US/Arizona.  Observer E.
   J. Christensen. Measurers T. Beuden, V. F. Carvajal, D. Fay, J. B.
   Fazekas, D. C. Fuls, A. R. Gibbs, A. D. Grauer, H. Gröller, J. K. Hogan,
   R. A. Kowalski, S. M. Larson, G. J. Leonard, D. Rankin, R. L. Seaman, F.
   C. Shelly, K. W. Wierzchoś. 0.68 m Schmidt + 10K CCD.
(I52) Steward Observatory, Mt. Lemmon Station  (N32.442570 W110.788920)
   US/Arizona. Measurers T. Beuden, V. F. Carvajal, D. Fay, J. B. Fazekas, D.
   C. Fuls, A. R. Gibbs, A. D. Grauer, H. Gröller, J. K. Hogan, R. A.
   Kowalski, S. M. Larson, G. J. Leonard, D. Rankin, R. L. Seaman, F. C.
   Shelly, K. W. Wierzchoś. 1.0-m prime focus + CCD.

Orbital elements:  C45ZGH1
   Perigee 2026 Mar 7.607828 +/- 0.0102 TT = 14:35:16.3 (JD 2461107.107828)
Epoch 2026 Mar  8.0 TT = JDT 2461107.5                           AutoNEOCP
M 114.704667491 +/- 1.8             (J2000 equator)
n 292.485314409 +/- 2.85            Peri.  291.650286 +/- 0.17
a 48514.04232 +/- 316               Node    48.663786 +/- 0.07
e   0.78770272 +/- 0.00179          Incl.   39.516954 +/- 0.025
P1772.363m/1.231d          H 33.01  G  0.15   U 13.4
q 10299.39907 +/- 152    Q 86728.68556 +/- 482
From 12 observations 2026 Mar. 8 (96.6 min); mean residual 0".70
Residuals in arcseconds: 
260308 703  .94+  .64-    260308 I52  .34+  .27-    260308 I52  .16-  .13+    
260308 703  1.7-  1.4+    260308 I52  .46+  .15-    260308 I52  .63+  .44-    
260308 703  .06-  .14+    260308 I52  .28+  .05-    260308 I52  .07+  .13+    
260308 703  .88+  1.1-    260308 I52  1.3-  .77+    260308 I52  .49-  .13+    

Ephemerides (geocentric):
Date (UTC) HH   RA             Dec           delta  r     elong  mag " sig PA
---- --------  ------------   ------------  ------ ------ -----  --- --------
2026 03 10 00  14 58 19.051   +03 16 59.38   28622 0.9931 125.5 16.4 317' 129
2026 03 10 01  17 01 27.589   -20 24 41.19   15925 0.9930  92.8 16.2 950' 124
2026 03 10 02  02 21 47.394   -10 34 32.11   12357 0.9930  45.4 18??  42d  52
2026 03 10 03  05 30 41.774   +24 51 43.12   25011 0.9930  94.2 17.1 636'  58
2026 03 10 04  06 49 16.894   +33 39 52.89   36342 0.9931 110.8 17.3 302'  68
2026 03 10 05  07 38 24.944   +37 02 00.64   45745 0.9932 119.7 17.6 197'  76
2026 03 10 06  08 13 53.840   +38 33 21.29   53660 0.9933 125.5 17.8 8934  81
2026 03 10 07  08 41 37.636   +39 15 02.37   60388 0.9933 129.8 17.9 7339  85
2026 03 10 08  09 04 26.685   +39 30 29.44   66126 0.9934 133.1 18.0 6348  89
2026 03 10 09  09 23 55.552   +39 30 24.50   71009 0.9934 135.8 18.1 5688  92
2026 03 10 10  09 41 01.990   +39 20 15.59   75131 0.9935 138.1 18.1 5230  95
2026 03 10 11  09 56 23.850   +39 03 02.87   78561 0.9935 140.1 18.2 4904  97
2026 03 10 12  10 10 27.379   +38 40 29.41   81348 0.9936 141.9 18.2 4673  99
2026 03 10 13  10 23 31.674   +38 13 34.47   83531 0.9936 143.4 18.2 4513 101
2026 03 10 14  10 35 51.270   +37 42 50.30   85136 0.9936 144.8 18.2 4409 103
2026 03 10 15  10 47 37.716   +37 08 31.01   86182 0.9936 146.0 18.2 4355 105
2026 03 10 16  10 59 00.626   +36 30 37.16   86681 0.9937 147.1 18.2 4345 107
2026 03 10 17  11 10 08.408   +35 48 57.82   86637 0.9937 148.1 18.2 4378 108
2026 03 10 18  11 21 08.827   +35 03 10.99   86051 0.9937 149.0 18.1 4457 110
2026 03 10 19  11 32 09.501   +34 12 42.45   84916 0.9937 149.7 18.1 4586 111
2026 03 10 20  11 43 18.388   +33 16 43.01   83220 0.9937 150.3 18.0 4775 113
2026 03 10 21  11 54 44.361   +32 14 03.63   80942 0.9937 150.8 17.9 5038 114
2026 03 10 22  12 06 37.975   +31 03 07.01   78054 0.9937 151.0 17.9 5397 116
2026 03 10 23  12 19 12.613   +29 41 33.48   74517 0.9937 151.1 17.7 5888 117
2026 03 11 00  12 32 46.367   +28 05 55.87   70278 0.9937 150.7 17.6 6571 119
2026 03 11 01  12 47 45.416   +26 10 52.73   65265 0.9937 150.0 17.5 7547 121
2026 03 11 02  13 04 50.668   +23 47 33.55   59378 0.9936 148.5 17.3 9006 122
2026 03 11 03  13 25 12.490   +20 40 05.60   52475 0.9936 146.1 17.1 189' 124
2026 03 11 04  13 51 09.015   +16 16 18.52   44345 0.9935 141.8 16.9 258' 126
2026 03 11 05  14 28 13.427   +09 17 50.87   34666 0.9935 134.0 16.6 404' 128
2026 03 11 06  15 36 12.973   -04 34 21.38   22989 0.9934 116.5 16.2 833' 129
2026 03 11 07  20 29 52.526   -39 00 41.53   10965 0.9933  52.9 17??  54d  97
2026 03 11 08  04 17 28.495   +12 45 28.76   18027 0.9933  74.5 17.3  50d  52
2026 03 11 09  06 12 29.276   +30 07 48.01   30484 0.9934 102.2 17.3 860'  63
2026 03 11 10  07 14 16.494   +35 35 36.62   40870 0.9935 114.3 17.5 450'  72
2026 03 11 11  07 56 04.763   +37 53 59.25   49544 0.9936 121.5 17.7 303'  78
2026 03 11 12  08 27 31.723   +38 57 45.83   56885 0.9936 126.5 17.9 231'  83
2026 03 11 13  08 52 45.074   +39 25 10.94   63139 0.9937 130.3 18.0 190'  87
2026 03 11 14  09 13 53.150   +39 32 17.29   68471 0.9937 133.4 18.1 9830  90
2026 03 11 15  09 32 10.683   +39 26 50.33   72995 0.9938 136.0 18.1 8768  93
2026 03 11 16  09 48 24.921   +39 12 56.85   76792 0.9938 138.1 18.2 8024  96
2026 03 11 17  10 03 07.681   +38 52 55.39   79921 0.9939 140.1 18.2 7493  98
2026 03 11 18  10 16 41.532   +38 28 05.74   82428 0.9939 141.7 18.2 7114 100
2026 03 11 19  10 29 23.239   +37 59 13.05   84343 0.9939 143.3 18.2 6849 102
2026 03 11 20  10 41 25.815   +37 26 40.29   85690 0.9940 144.6 18.2 6678 104
2026 03 11 21  10 52 59.817   +36 50 34.83   86484 0.9940 145.9 18.2 6587 106
2026 03 11 22  11 04 14.226   +36 10 51.71   86734 0.9940 147.0 18.2 6569 107
2026 03 11 23  11 15 17.089   +35 27 14.90   86442 0.9940 148.0 18.2 6622 109